| time (UTC) | temp F | wind direction | speed knots | gust knots | rain 1hr in | rain 24hr in | rain mn in | humidity % | barometer mb |
| 20260504201531 | 72 | 142 | 7.0 | 18.2 | 0.00 | 0.00 | 0.00 | 36 | 1008.6 |
| 20260504200031 | 72 | 117 | 7.0 | 14.8 | 0.00 | 0.00 | 0.00 | 36 | 1008.7 |
| 20260504194527 | 71 | 77 | 6.1 | 15.6 | 0.00 | 0.00 | 0.00 | 38 | 1008.9 |
| 20260504193025 | 71 | 56 | 4.3 | 14.8 | 0.00 | 0.00 | 0.00 | 38 | 1008.9 |
| 20260504191521 | 71 | 65 | 4.3 | 13.0 | 0.00 | 0.00 | 0.00 | 38 | 1009.3 |
| 20260504190017 | 70 | 61 | 8.7 | 14.8 | 0.00 | 0.00 | 0.00 | 38 | 1009.3 |
| 20260504184517 | 70 | 9 | 6.1 | 13.9 | 0.00 | 0.00 | 0.00 | 37 | 1009.4 |
| 20260504183011 | 70 | 75 | 5.2 | 15.6 | 0.00 | 0.00 | 0.00 | 37 | 1009.7 |
| 20260504181513 | 70 | 118 | 6.1 | 13.9 | 0.00 | 0.00 | 0.00 | 36 | 1009.9 |
| 20260504180008 | 69 | 135 | 8.7 | 16.5 | 0.00 | 0.00 | 0.00 | 36 | 1010.2 |
| 20260504174504 | 70 | 141 | 8.7 | 12.2 | 0.00 | 0.00 | 0.00 | 35 | 1010.4 |
| 20260504173102 | 69 | 117 | 6.1 | 15.6 | 0.00 | 0.00 | 0.00 | 36 | 1010.6 |
| 20260504171556 | 69 | 87 | 4.3 | 13.0 | 0.00 | 0.00 | 0.00 | 37 | 1010.6 |
| 20260504081523 | 48 | 360 | 3.5 | 7.8 | 0.00 | 0.00 | 0.00 | 71 | 1013.1 |
| 20260504044533 | 52 | 360 | 1.7 | 4.3 | 0.00 | 0.00 | 0.00 | 49 | 1012.7 |
| 20260504043024 | 52 | 360 | 1.7 | 4.3 | 0.00 | 0.00 | 0.00 | 48 | 1012.5 |
| 20260504041548 | 52 | 360 | 1.7 | 4.3 | 0.00 | 0.00 | 0.00 | 48 | 1012.3 |
| 20260504040103 | 52 | 360 | 2.6 | 4.3 | 0.00 | 0.00 | 0.00 | 48 | 1012.3 |
| 20260504034608 | 53 | 360 | 2.6 | 5.2 | 0.00 | 0.00 | 0.00 | 47 | 1012.2 |
| 20260504033043 | 52 | 360 | 1.7 | 5.2 | 0.00 | 0.00 | 0.00 | 47 | 1012.1 |
| 20260504031545 | 52 | 360 | 1.7 | 4.3 | 0.00 | 0.00 | 0.00 | 47 | 1012.1 |
| 20260504024538 | 53 | 360 | 0.9 | 4.3 | 0.00 | 0.00 | 0.00 | 46 | 1012.2 |
| 20260504023037 | 53 | 360 | 2.6 | 5.2 | 0.00 | 0.00 | 0.00 | 46 | 1012.2 |
| 20260504021536 | 53 | 360 | 2.6 | 5.2 | 0.00 | 0.00 | 0.00 | 46 | 1012.2 |
| 20260504020036 | 53 | 360 | 1.7 | 4.3 | 0.00 | 0.00 | 0.00 | 46 | 1012.1 |
| 20260504014535 | 53 | 360 | 0.9 | 3.5 | 0.00 | 0.00 | 0.00 | 46 | 1012.1 |
| 20260504013045 | 54 | 360 | 1.7 | 3.5 | 0.00 | 0.00 | 0.00 | 45 | 1011.8 |
| 20260504011533 | 54 | 360 | 1.7 | 3.5 | 0.00 | 0.00 | 0.00 | 44 | 1011.7 |
| 20260504010032 | 55 | 360 | 1.7 | 3.5 | 0.00 | 0.00 | 0.00 | 43 | 1011.5 |
| 20260504004530 | 55 | 360 | 1.7 | 3.5 | 0.00 | 0.00 | 0.00 | 43 | 1011.2 |
| 20260504003031 | 56 | 360 | 1.7 | 3.5 | 0.00 | 0.00 | 0.00 | 41 | 1011.1 |
| 20260504001528 | 57 | 360 | 0.9 | 3.5 | 0.00 | 0.00 | 0.00 | 39 | 1010.8 |
| 20260504000028 | 58 | 360 | 1.7 | 7.0 | 0.00 | 0.00 | 0.00 | 38 | 1010.8 |
| 20260503234527 | 59 | 360 | 4.3 | 10.4 | 0.00 | 0.00 | 0.00 | 36 | 1010.7 |
| 20260503233024 | 59 | 150 | 4.3 | 9.6 | 0.00 | 0.00 | 0.00 | 35 | 1010.6 |
| 20260503231524 | 60 | 144 | 3.5 | 8.7 | 0.00 | 0.00 | 0.00 | 35 | 1010.5 |
| 20260503230024 | 60 | 123 | 6.1 | 9.6 | 0.00 | 0.00 | 0.00 | 34 | 1010.5 |
| 20260503224525 | 60 | 185 | 4.3 | 13.0 | 0.00 | 0.00 | 0.00 | 34 | 1010.6 |
| 20260503224523 | 60 | 184 | 4.3 | 13.0 | 0.00 | 0.00 | 0.00 | 34 | 1010.6 |
| 20260503223053 | 61 | 135 | 7.0 | 11.3 | 0.00 | 0.00 | 0.00 | 33 | 1010.5 |
| 20260503221553 | 60 | 140 | 7.0 | 13.9 | 0.00 | 0.00 | 0.00 | 32 | 1010.6 |
| 20260503220049 | 60 | 134 | 7.0 | 15.6 | 0.00 | 0.00 | 0.00 | 32 | 1010.6 |
| 20260503214559 | 60 | 136 | 7.8 | 15.6 | 0.00 | 0.00 | 0.00 | 32 | 1010.6 |
| 20260503213049 | 60 | 143 | 7.0 | 16.5 | 0.00 | 0.00 | 0.00 | 32 | 1010.6 |
| 20260503211552 | 60 | 209 | 6.1 | 14.8 | 0.00 | 0.00 | 0.00 | 33 | 1010.6 |
| 20260503210043 | 60 | 153 | 10.4 | 14.8 | 0.00 | 0.00 | 0.00 | 33 | 1010.6 |
| 20260503204553 | 59 | 161 | 8.7 | 18.2 | 0.00 | 0.00 | 0.00 | 34 | 1010.6 |
| 20260503203047 | 60 | 94 | 4.3 | 13.9 | 0.00 | 0.00 | 0.00 | 34 | 1010.8 |